When you browse on this site, cookies collect data to enhance your experience and personalize the content and advertising you see.
Visit our Privacy Policy to learn more. By continuing to use the site, you agree to this use of cookies and data.
  • Em Portugal
  • Lista de países
  • Para 7 dias
  • Temperatura da água
  • Mapa do tempo
  • Widgets de tempo
  • user-avatar
    Iniciar Sessão

    Previsão horária em Silkhet

    Hoje, 12 Dezembro, Quinta-feira

    Tempo Temperatura Precipitação Vento Pressão Humidade
    00:00 +20°C° 0 mm 1 m/s 760 mmHg 74%
    01:00 +19°C° 0 mm 1 m/s 760 mmHg 76%
    02:00 +19°C° 0 mm 1 m/s 759 mmHg 78%
    03:00 +18°C° 0 mm 1 m/s 759 mmHg 80%
    04:00 +18°C° 0 mm 1 m/s 760 mmHg 82%
    05:00 +18°C° 0 mm 1 m/s 760 mmHg 84%
    06:00 +16°C° 0 mm 1 m/s 760 mmHg 87%
    07:00 +19°C° 0 mm 1 m/s 761 mmHg 81%
    08:00 +20°C° 0 mm 2 m/s 761 mmHg 76%
    09:00 +21°C° 0 mm 2 m/s 762 mmHg 71%
    10:00 +24°C° 0 mm 1 m/s 761 mmHg 64%
    11:00 +26°C° 0 mm 1 m/s 761 mmHg 57%
    12:00 +27°C° 0 mm 1 m/s 761 mmHg 51%
    13:00 +27°C° 0 mm 1 m/s 760 mmHg 49%
    14:00 +26°C° 0 mm 0 m/s 759 mmHg 47%
    15:00 +26°C° 0 mm 0 m/s 759 mmHg 45%
    16:00 +24°C° 0 mm 0 m/s 759 mmHg 50%
    17:00 +25°C° 0 mm 1 m/s 759 mmHg 56%
    18:00 +23°C° 0 mm 1 m/s 759 mmHg 61%
    19:00 +22°C° 0 mm 1 m/s 760 mmHg 63%
    20:00 +20°C° 0 mm 0 m/s 760 mmHg 65%
    21:00 +19°C° 0 mm 0 m/s 761 mmHg 67%
    22:00 +19°C° 0 mm 0 m/s 760 mmHg 69%
    23:00 +20°C° 0 mm 1 m/s 760 mmHg 71%

    Amanhã, 13 Dezembro, Sexta-feira

    Tempo Temperatura Precipitação Vento Pressão Humidade
    00:00 +20°C° 0 mm 1 m/s 760 mmHg 73%
    01:00 +19°C° 0 mm 1 m/s 760 mmHg 75%
    02:00 +19°C° 0 mm 1 m/s 760 mmHg 77%
    03:00 +19°C° 0 mm 1 m/s 760 mmHg 79%
    04:00 +18°C° 0 mm 1 m/s 760 mmHg 82%
    05:00 +17°C° 0 mm 2 m/s 760 mmHg 84%
    06:00 +17°C° 0 mm 2 m/s 760 mmHg 87%
    07:00 +18°C° 0 mm 2 m/s 761 mmHg 80%
    08:00 +20°C° 0 mm 2 m/s 761 mmHg 74%
    09:00 +21°C° 0 mm 2 m/s 762 mmHg 67%
    10:00 +24°C° 0 mm 2 m/s 762 mmHg 62%
    11:00 +26°C° 0 mm 2 m/s 761 mmHg 56%
    12:00 +27°C° 0 mm 2 m/s 761 mmHg 50%
    13:00 +28°C° 0 mm 2 m/s 760 mmHg 47%
    14:00 +28°C° 0 mm 1 m/s 759 mmHg 44%
    15:00 +29°C° 0 mm 1 m/s 759 mmHg 41%
    16:00 +27°C° 0 mm 1 m/s 759 mmHg 46%
    17:00 +25°C° 0 mm 1 m/s 759 mmHg 51%
    18:00 +23°C° 0 mm 1 m/s 760 mmHg 56%
    19:00 +21°C° 0 mm 0 m/s 761 mmHg 58%
    20:00 +20°C° 0 mm 0 m/s 761 mmHg 60%
    21:00 +20°C° 0 mm 0 m/s 762 mmHg 61%
    22:00 +21°C° 0 mm 1 m/s 762 mmHg 64%
    23:00 +20°C° 0 mm 1 m/s 762 mmHg 67%

    Depois de amanhã, 14 Dezembro, Sábado

    Tempo Temperatura Precipitação Vento Pressão Humidade
    00:00 +20°C° 0 mm 1 m/s 762 mmHg 70%
    01:00 +19°C° 0 mm 1 m/s 761 mmHg 72%
    02:00 +19°C° 0 mm 1 m/s 761 mmHg 74%
    03:00 +19°C° 0 mm 1 m/s 761 mmHg 76%
    04:00 +18°C° 0 mm 1 m/s 761 mmHg 79%
    05:00 +18°C° 0 mm 1 m/s 761 mmHg 81%
    06:00 +17°C° 0 mm 2 m/s 762 mmHg 83%
    07:00 +18°C° 0 mm 2 m/s 762 mmHg 78%
    08:00 +20°C° 0 mm 2 m/s 762 mmHg 72%
    09:00 +23°C° 0 mm 2 m/s 763 mmHg 67%
    10:00 +25°C° 0 mm 1 m/s 762 mmHg 60%
    11:00 +27°C° 0 mm 1 m/s 762 mmHg 53%
    12:00 +27°C° 0 mm 0 m/s 761 mmHg 46%
    13:00 +29°C° 0 mm 1 m/s 760 mmHg 43%
    14:00 +29°C° 0 mm 1 m/s 760 mmHg 41%
    15:00 +29°C° 0 mm 1 m/s 759 mmHg 39%
    16:00 +27°C° 0 mm 1 m/s 759 mmHg 44%
    17:00 +25°C° 0 mm 1 m/s 760 mmHg 49%
    18:00 +24°C° 0 mm 1 m/s 760 mmHg 53%
    19:00 +23°C° 0 mm 1 m/s 760 mmHg 56%
    20:00 +22°C° 0 mm 1 m/s 761 mmHg 58%
    21:00 +20°C° 0 mm 0 m/s 761 mmHg 61%
    22:00 +21°C° 0 mm 1 m/s 761 mmHg 63%
    23:00 +21°C° 0 mm 1 m/s 761 mmHg 65%

    15 Dezembro, Domingo

    Tempo Temperatura Precipitação Vento Pressão Humidade
    00:00 +20°C° 0 mm 1 m/s 761 mmHg 67%
    01:00 +20°C° 0 mm 1 m/s 760 mmHg 70%
    02:00 +19°C° 0 mm 1 m/s 760 mmHg 72%
    03:00 +19°C° 0 mm 1 m/s 760 mmHg 75%
    04:00 +19°C° 0 mm 1 m/s 760 mmHg 77%
    05:00 +18°C° 0 mm 1 m/s 760 mmHg 79%
    06:00 +18°C° 0 mm 1 m/s 760 mmHg 81%
    07:00 +19°C° 0 mm 2 m/s 761 mmHg 76%
    08:00 +20°C° 0 mm 2 m/s 761 mmHg 70%
    09:00 +23°C° 0 mm 2 m/s 762 mmHg 65%
    10:00 +24°C° 0 mm 2 m/s 761 mmHg 58%
    11:00 +26°C° 0 mm 1 m/s 760 mmHg 52%
    12:00 +28°C° 0 mm 1 m/s 760 mmHg 46%
    13:00 +29°C° 0 mm 1 m/s 759 mmHg 43%
    14:00 +29°C° 0 mm 1 m/s 759 mmHg 40%
    15:00 +29°C° 0 mm 1 m/s 758 mmHg 37%
    16:00 +27°C° 0 mm 1 m/s 759 mmHg 42%
    17:00 +26°C° 0 mm 1 m/s 759 mmHg 46%
    18:00 +24°C° 0 mm 1 m/s 759 mmHg 51%
    19:00 +23°C° 0 mm 1 m/s 759 mmHg 54%
    20:00 +23°C° 0 mm 1 m/s 760 mmHg 57%
    21:00 +22°C° 0 mm 1 m/s 760 mmHg 60%
    22:00 +21°C° 0 mm 1 m/s 760 mmHg 62%
    23:00 +21°C° 0 mm 1 m/s 760 mmHg 65%

    16 Dezembro, Segunda-feira

    Tempo Temperatura Precipitação Vento Pressão Humidade
    00:00 +20°C° 0 mm 1 m/s 760 mmHg 67%
    01:00 +20°C° 0 mm 1 m/s 759 mmHg 69%
    02:00 +20°C° 0 mm 1 m/s 759 mmHg 70%
    03:00 +19°C° 0 mm 1 m/s 759 mmHg 72%
    04:00 +19°C° 0 mm 1 m/s 759 mmHg 74%
    05:00 +19°C° 0 mm 1 m/s 759 mmHg 77%
    06:00 +18°C° 0 mm 1 m/s 759 mmHg 79%
    07:00 +20°C° 0 mm 1 m/s 760 mmHg 74%
    08:00 +21°C° 0 mm 1 m/s 760 mmHg 69%
    09:00 +23°C° 0 mm 1 m/s 761 mmHg 65%
    10:00 +25°C° 0 mm 1 m/s 760 mmHg 59%
    11:00 +27°C° 0 mm 1 m/s 760 mmHg 53%
    12:00 +26°C° 0 mm 0 m/s 759 mmHg 47%
    13:00 +29°C° 0 mm 1 m/s 759 mmHg 43%
    14:00 +29°C° 0 mm 1 m/s 759 mmHg 40%
    15:00 +29°C° 0 mm 1 m/s 758 mmHg 37%
    16:00 +27°C° 0 mm 1 m/s 758 mmHg 42%
    17:00 +26°C° 0 mm 1 m/s 759 mmHg 47%
    18:00 +24°C° 0 mm 2 m/s 759 mmHg 51%
    19:00 +24°C° 0 mm 1 m/s 759 mmHg 52%
    20:00 +23°C° 0 mm 1 m/s 759 mmHg 54%
    21:00 +23°C° 0 mm 1 m/s 760 mmHg 55%
    22:00 +23°C° 0 mm 1 m/s 760 mmHg 56%
    23:00 +20°C° 0 mm 0 m/s 759 mmHg 58%

    17 Dezembro, Terça-feira

    Tempo Temperatura Precipitação Vento Pressão Humidade
    00:00 +20°C° 0 mm 0 m/s 759 mmHg 59%
    01:00 +20°C° 0 mm 0 m/s 759 mmHg 61%
    02:00 +19°C° 0 mm 0 m/s 759 mmHg 64%
    03:00 +19°C° 0 mm 0 m/s 759 mmHg 66%
    04:00 +20°C° 0 mm 1 m/s 759 mmHg 69%
    05:00 +20°C° 0 mm 1 m/s 759 mmHg 71%
    06:00 +19°C° 0 mm 1 m/s 759 mmHg 74%
    07:00 +21°C° 0 mm 1 m/s 760 mmHg 70%
    08:00 +22°C° 0 mm 1 m/s 760 mmHg 66%
    09:00 +24°C° 0 mm 1 m/s 761 mmHg 62%
    10:00 +26°C° 0 mm 1 m/s 760 mmHg 55%
    11:00 +27°C° 0 mm 1 m/s 760 mmHg 49%
    12:00 +29°C° 0 mm 1 m/s 759 mmHg 43%
    13:00 +29°C° 0 mm 1 m/s 759 mmHg 40%
    14:00 +30°C° 0 mm 1 m/s 758 mmHg 37%
    15:00 +30°C° 0 mm 1 m/s 757 mmHg 34%
    16:00 +28°C° 0 mm 1 m/s 758 mmHg 39%
    17:00 +26°C° 0 mm 1 m/s 758 mmHg 43%
    18:00 +24°C° 0 mm 2 m/s 758 mmHg 47%
    19:00 +24°C° 0 mm 1 m/s 759 mmHg 49%
    20:00 +23°C° 0 mm 1 m/s 759 mmHg 51%
    21:00 +22°C° 0 mm 1 m/s 759 mmHg 53%
    22:00 +22°C° 0 mm 1 m/s 759 mmHg 56%
    23:00 +21°C° 0 mm 1 m/s 759 mmHg 59%
    Mostrar mais